Погода в Маккавеево

Россия / Забайкальский край     51°45′11″N   113°57′22″E
темп.,
°C
ветер,
м/с
пор.,
м/с
влажн.,
%
обл.,
%
осадки,
мм/ч
давл.,
гПа
погр.,
м
21 января, пт
пт2100:00−20всв1010076 0.1 10369
03:00−22св0010099 0.2 10379
06:00−22сз00100100 0.1 103714
09:00−22сз00100100 0.1 10389
12:00−17зсз1187100 0.0 1037176
15:00−14з1182100 0.1 1034367
18:00−17з009894 0.1 10359
21:00−20ссз1110097 0.1 10369
22 января, сб
сб2200:00−20сз1110072 0.1 103710
03:00−24ссз1110091 0.1 10389
06:00−26ссз1110096 0.0 10399
09:00−27ссз1110095 0.1 10419
12:00−18зсз118964 0.0 1038150
15:00−14зсз127717 0.0 1035321
18:00−20ссз00985 0.0 10379
21:00−24с1110030 0.0 10409
23 января, вс
вс2300:00−26с1110049 0.0 10419
03:00−26с1110093 0.0 10419
06:00−25ссз0010082 0.0 10409
09:00−23ссв1199100 0.0 103917
12:00−17ююв0086100 0.0 1037133
15:00−14юв0179100 0.0 1034264
18:00−17ю0095100 0.0 10359
21:00−19св1199100 0.0 10369
24 января, пн
пн2400:00−19с1199100 0.0 10369
03:00−20с1199100 0.0 103611
06:00−21ссз1199100 0.0 103510
09:00−22ссз1199100 0.0 103614
12:00−16сз1185100 0.0 1034168
15:00−13зсз127596 0.0 1031330
18:00−19сз119554 0.0 10339
21:00−24ссз211006 0.0 10369
25 января, вт
вт2500:00−26ссз2110037 0.0 103710
03:00−27ссз1110063 0.0 103811
06:00−28ссз1110077 0.0 103812
09:00−29ссз1110078 0.0 103812
12:00−20зсз128965 0.0 1035171
15:00−14зсз23757 0.0 1031399
18:00−20сз11975 0.0 10339
21:00−25ссз1110034 0.0 10369